Simultaneous Nadir Overpasses (SNOs) Predictions

Prediction of SNOs near US between NOAA-19 and NPP Satellite Orbit:

Table of predicted SNOs near US for the next 10.0 days since TLE Epoch: 12/14/2012
Index Date (NOAA-19) Time (NOAA-19) NOAA-19 Lat,Lon Date (NPP) Time (NPP) NPP Lat,Lon Distance(km) Time Diff (sec)
1 12/22/2012 07:35:18 49.91, -79.50 12/22/2012 07:37:07 50.58, -82.79 245.38 109
2 12/22/2012 09:17:23 49.90,-105.03 12/22/2012 09:18:38 50.52,-108.19 235.55 75
3 12/22/2012 17:25:28 49.99, -68.36 12/22/2012 17:24:00 49.58, -70.56 164.49 88
4 12/22/2012 19:07:33 50.00, -93.88 12/22/2012 19:05:31 49.65, -95.96 154.37 122
5 12/22/2012 20:49:37 49.95,-119.38 12/22/2012 20:47:00 49.59,-121.32 144.48 157
6 12/23/2012 07:30:41 28.27, -84.19 12/23/2012 07:24:25 28.56, -85.56 137.38 376
7 12/23/2012 09:13:21
